Location: Katrenip?du
(16.7934°N, 80.9546°E)
Time: 11:12:19
(UTC+00:00)

Hubble Space Telescope - Visible Passes

Search period start: 09 August 2022 00:00
Search period end: 19 August 2022 00:00
Orbit: 532 x 535 km, 28.5° (Epoch: 08 August)

Date Brightness Start Highest point End Pass type
(mag) Time Alt. Az. Time Alt. Az. Time Alt. Az.
09 Aug 3.2 14:35:58 10° NW 14:38:33 16° N 14:40:40 12° NNE visible
10 Aug 3.3 14:24:09 10° NW 14:26:40 16° N 14:29:12 10° NE visible
11 Aug 3.2 14:12:17 10° NW 14:14:48 15° N 14:17:18 10° NE visible
12 Aug 3.2 14:00:21 10° NW 14:02:54 16° N 14:05:27 10° NE visible
12 Aug 3.9 15:41:07 10° NW 15:41:31 12° NW 15:41:31 12° NW visible
13 Aug 3.1 13:48:21 10° NW 13:51:00 16° N 13:53:40 10° NE visible
13 Aug 3.6 15:28:59 10° NW 15:30:00 16° NW 15:30:00 16° NW visible
14 Aug 3.0 13:36:18 10° NW 13:39:07 18° N 13:41:55 10° NE visible
14 Aug 3.1 15:16:50 10° NW 15:18:30 21° NW 15:18:30 21° NW visible
15 Aug 2.8 13:24:12 10° NW 13:27:11 19° N 13:30:10 10° ENE visible
15 Aug 2.5 15:04:43 10° NW 15:07:00 29° NW 15:07:00 29° NW visible
16 Aug 1.8 14:52:36 10° WNW 14:55:33 42° NW 14:55:33 42° NW visible
17 Aug 1.0 14:40:32 10° WNW 14:44:07 66° NW 14:44:07 66° NW visible
18 Aug 0.6 14:28:29 10° WNW 14:32:35 77° SSW 14:32:45 75° S visible
